User: anonymous   Login
Location: Chuathbaluk
(61.5726°N, 159.2454°W)
Time: 01:01:30
(UTC+00:00)
Language:

XW-2D - Orbit

View from above orbital plane
View from above orbital plane
View from above satellite
View from above satellite

Ground track
Ground track

The orbit data is extracted from the following two-line orbital elements,

1 40907U 15049J   21023.75191204  .00000706  00000-0  39400-4 0  9999
2 40907  97.4824  27.7213 0013313 333.2404  75.1668 15.16719731295660
Epoch (UTC): 23 January 2021 18:02:45
Eccentricity: 0.0013313
inclination: 97.4824°
perigee height: 506 km
apogee height: 525 km
right ascension of ascending node: 27.7213°
argument of perigee: 333.2404°
revolutions per day: 15.16719731
mean anomaly at epoch: 75.1668°
orbit number at epoch: 29566

The dashed part of the orbit path shows where the satellite is in the earth's shadow,  

DLR